Grand Rapids, MN

12:02 AM CDT on May 24, 2017 (GMT -0500)
Grand Rapids-Itasca County-Newstrom Field

Weather History for KGPZ - March, 2013

Change the Weather History Date:

Wednesday, March 20, 2013

  Actual Average Record
Temperature  
Mean Temperature 10 °F -  
Max Temperature 19 °F 40 °F 60 °F (1946)
Min Temperature 0 °F 19 °F -24 °F (1965)
Degree Days  
Heating Degree Days 56    
Moisture  
Dew Point -2 °F    
Average Humidity 63    
Maximum Humidity 79    
Minimum Humidity 49    
Precipitation  
Precipitation 0.00 in - - ()
Sea Level Pressure  
Sea Level Pressure 30.07 in    
Wind  
Wind Speed 13 mph (NW)    
Max Wind Speed 21 mph    
Max Gust Speed 29 mph    
Visibility 10 miles    
Events      
Averages and records for this station are not official NWS values.
T = Trace of Precipitation, MM = Missing Value Source: NWS Daily Summary

Daily Weather History Graph

Daily Weather History Graph

Search for Another Location

Airport or City:

Trip Planner

Search our weather history database for the weather conditions in past years. The results will help you decide how hot, cold, wet, or windy it might be!

Date:

Astronomy

Mar. 20, 2013 Rise Set
Actual Time 7:16 AM CDT 7:27 PM CDT
Civil Twilight 6:45 AM CDT 7:57 PM CDT
Nautical Twilight 6:10 AM CDT 8:33 PM CDT
Astronomical Twilight 5:33 AM CDT 9:10 PM CDT
Moon 12:41 PM CDT (3/20) 3:18 AM CDT (3/20)
Length of Visible Light 13h 11m
Length of Day
12h 10m
First Quarter, 59% of the Moon is Illuminated
Mar 20
First Quarter
Mar 27
Full
Apr 2
Last Quarter
Apr 10
New
Apr 18
First Quarter

Hourly Weather History & Observations

Time (CDT) Temp. Windchill Dew Point Humidity Pressure Visibility Wind Dir Wind Speed Gust Speed Precip Events Conditions
12:15 AM 3.2 °F -14.6 °F -5.8 °F 66% 30.07 in 10.0 mi WNW 13.8 mph 19.6 mph N/A   Clear
12:35 AM 3.2 °F -13.9 °F -5.8 °F 66% 30.07 in 10.0 mi WNW 12.7 mph 19.6 mph N/A   Clear
12:55 AM 3.2 °F -12.2 °F -5.8 °F 66% 30.06 in 10.0 mi WNW 10.4 mph - N/A   Clear
1:15 AM 3.2 °F -13.9 °F -5.8 °F 66% 30.07 in 10.0 mi WNW 12.7 mph 20.7 mph N/A   Clear
1:35 AM 3.2 °F -13.1 °F -5.8 °F 66% 30.07 in 10.0 mi WNW 11.5 mph - N/A   Clear
1:55 AM 1.4 °F -14.5 °F -5.8 °F 72% 30.07 in 10.0 mi WNW 10.4 mph - N/A   Clear
2:15 AM 1.4 °F -15.3 °F -5.8 °F 72% 30.07 in 10.0 mi WNW 11.5 mph - N/A   Clear
2:35 AM 1.4 °F -15.3 °F -5.8 °F 72% 30.07 in 10.0 mi WNW 11.5 mph - N/A   Clear
2:55 AM 1.4 °F -14.5 °F -5.8 °F 72% 30.07 in 10.0 mi WNW 10.4 mph - N/A   Clear
3:15 AM 1.4 °F -16.1 °F -5.8 °F 72% 30.07 in 10.0 mi WNW 12.7 mph 18.4 mph N/A   Clear
3:35 AM 1.4 °F -16.1 °F -7.6 °F 66% 30.07 in 10.0 mi WNW 12.7 mph 19.6 mph N/A   Clear
3:55 AM 1.4 °F -16.1 °F -5.8 °F 72% 30.06 in 10.0 mi WNW 12.7 mph 21.9 mph N/A   Clear
4:15 AM 1.4 °F -18.2 °F -5.8 °F 72% 30.06 in 10.0 mi WNW 16.1 mph 27.6 mph N/A   Clear
4:35 AM 1.4 °F -19.4 °F -5.8 °F 72% 30.07 in 10.0 mi WNW 18.4 mph 24.2 mph N/A   Clear
4:55 AM 1.4 °F -16.9 °F -7.6 °F 66% 30.07 in 10.0 mi NW 13.8 mph - N/A   Clear
5:15 AM 1.4 °F -16.1 °F -7.6 °F 66% 30.07 in 10.0 mi WNW 12.7 mph - N/A   Clear
5:35 AM 1.4 °F -17.6 °F -7.6 °F 66% 30.07 in 10.0 mi WNW 15.0 mph 21.9 mph N/A   Partly Cloudy
5:55 AM 1.4 °F -17.6 °F -7.6 °F 66% 30.07 in 10.0 mi WNW 15.0 mph 19.6 mph N/A   Clear
6:15 AM 1.4 °F -18.2 °F -7.6 °F 66% 30.08 in 10.0 mi NW 16.1 mph 19.6 mph N/A   Clear
6:35 AM 1.4 °F -15.3 °F -7.6 °F 66% 30.08 in 10.0 mi WNW 11.5 mph 18.4 mph N/A   Clear
6:55 AM 1.4 °F -17.6 °F -7.6 °F 66% 30.08 in 8.0 mi WNW 15.0 mph 19.6 mph N/A   Mostly Cloudy
7:15 AM 1.4 °F -17.6 °F -7.6 °F 66% 30.09 in 5.0 mi WNW 15.0 mph 21.9 mph N/A   Mostly Cloudy
7:35 AM 1.4 °F -16.9 °F -7.6 °F 66% 30.09 in 6.0 mi NW 13.8 mph 20.7 mph N/A   Overcast
7:55 AM -0.4 °F -19.9 °F -5.8 °F 78% 30.09 in 5.0 mi WNW 15.0 mph 20.7 mph N/A   Overcast
8:15 AM 1.4 °F -17.6 °F -5.8 °F 72% 30.09 in 10.0 mi NW 15.0 mph 20.7 mph N/A   Overcast
8:35 AM 1.4 °F -18.2 °F -5.8 °F 72% 30.09 in 10.0 mi NW 16.1 mph - N/A   Scattered Clouds
8:55 AM 1.4 °F -16.9 °F -5.8 °F 72% 30.09 in 10.0 mi NW 13.8 mph - N/A   Clear
9:15 AM 3.2 °F -15.9 °F -5.8 °F 66% 30.09 in 9.0 mi NW 16.1 mph 21.9 mph N/A   Clear
9:35 AM 3.2 °F -15.9 °F -5.8 °F 66% 30.09 in 10.0 mi NW 16.1 mph 26.5 mph N/A   Clear
9:55 AM 3.2 °F -18.1 °F -5.8 °F 66% 30.09 in 10.0 mi NW 20.7 mph 28.8 mph N/A   Clear
10:15 AM 5.0 °F -15.2 °F -4.0 °F 66% 30.09 in 10.0 mi NW 19.6 mph 25.3 mph N/A   Clear
10:35 AM 5.0 °F -14.7 °F -4.0 °F 66% 30.09 in 10.0 mi NNW 18.4 mph 23.0 mph N/A   Clear
10:55 AM 6.8 °F -10.7 °F -2.2 °F 67% 30.08 in 10.0 mi WNW 15.0 mph - N/A   Clear
11:15 AM 6.8 °F -11.3 °F -4.0 °F 61% 30.08 in 10.0 mi NW 16.1 mph - N/A   Clear
11:35 AM 8.6 °F -7.7 °F -2.2 °F 62% 30.08 in 10.0 mi NW 13.8 mph - N/A   Clear
11:55 AM 8.6 °F -10.0 °F -2.2 °F 62% 30.08 in 10.0 mi NW 18.4 mph - N/A   Partly Cloudy
12:15 PM 10.4 °F -6.6 °F -0.4 °F 62% 30.08 in 10.0 mi NW 16.1 mph - N/A   Clear
12:35 PM 10.4 °F -6.6 °F -0.4 °F 62% 30.08 in 10.0 mi NW 16.1 mph 23.0 mph N/A   Clear
12:55 PM 10.4 °F -5.4 °F -0.4 °F 62% 30.08 in 10.0 mi NW 13.8 mph 21.9 mph N/A   Clear
1:15 PM 12.2 °F -4.8 °F -0.4 °F 57% 30.07 in 10.0 mi NW 17.3 mph - N/A   Clear
1:35 PM 12.2 °F -5.8 °F -0.4 °F 57% 30.07 in 10.0 mi NNW 19.6 mph - N/A   Clear
1:55 PM 14.0 °F -1.4 °F 1.4 °F 57% 30.06 in 10.0 mi NW 15.0 mph 18.4 mph N/A   Scattered Clouds
2:15 PM 14.0 °F -1.4 °F 1.4 °F 57% 30.06 in 10.0 mi NW 15.0 mph 18.4 mph N/A   Scattered Clouds
2:35 PM 15.8 °F -0.2 °F 1.4 °F 53% 30.06 in 10.0 mi NW 17.3 mph 21.9 mph N/A   Scattered Clouds
2:55 PM 15.8 °F 0.9 °F 3.2 °F 58% 30.05 in 10.0 mi NW 15.0 mph 20.7 mph N/A   Mostly Cloudy
3:15 PM 17.6 °F 2.2 °F 3.2 °F 53% 30.05 in 10.0 mi NW 17.3 mph 24.2 mph N/A   Mostly Cloudy
3:35 PM 17.6 °F 2.7 °F 3.2 °F 53% 30.04 in 10.0 mi NW 16.1 mph 24.2 mph N/A   Mostly Cloudy
3:55 PM 17.6 °F 2.2 °F 3.2 °F 53% 30.04 in 10.0 mi NW 17.3 mph - N/A   Mostly Cloudy
4:15 PM 17.6 °F 3.2 °F 3.2 °F 53% 30.04 in 10.0 mi NNW 15.0 mph 18.4 mph N/A   Overcast
4:35 PM 19.4 °F 4.1 °F 3.2 °F 49% 30.04 in 10.0 mi NNW 18.4 mph 24.2 mph N/A   Overcast
4:55 PM 17.6 °F 2.2 °F 3.2 °F 53% 30.05 in 10.0 mi NNW 17.3 mph 21.9 mph N/A   Overcast
5:15 PM 17.6 °F 2.2 °F 3.2 °F 53% 30.05 in 10.0 mi NW 17.3 mph - N/A   Overcast
5:35 PM 19.4 °F 3.2 °F 3.2 °F 49% 30.05 in 10.0 mi NNW 20.7 mph 25.3 mph N/A   Overcast
5:55 PM 17.6 °F 3.7 °F 3.2 °F 53% 30.05 in 10.0 mi NNW 13.8 mph 18.4 mph N/A   Mostly Cloudy
6:15 PM 17.6 °F 3.2 °F 3.2 °F 53% 30.06 in 10.0 mi NNW 15.0 mph - N/A   Overcast
6:35 PM 17.6 °F 3.7 °F 3.2 °F 53% 30.06 in 10.0 mi North 13.8 mph - N/A   Overcast
6:55 PM 17.6 °F 4.3 °F 3.2 °F 53% 30.07 in 10.0 mi North 12.7 mph - N/A   Overcast
7:15 PM 15.8 °F 0.3 °F 1.4 °F 53% 30.07 in 10.0 mi NNW 16.1 mph - N/A   Overcast
7:35 PM 15.8 °F 2.7 °F 3.2 °F 58% 30.08 in 10.0 mi NNW 11.5 mph - N/A   Overcast
7:55 PM 15.8 °F 5.1 °F 3.2 °F 58% 30.08 in 10.0 mi North 8.1 mph - N/A   Overcast
8:15 PM 15.8 °F 7.2 °F 1.4 °F 53% 30.08 in 10.0 mi North 5.8 mph - N/A   Overcast
8:35 PM 14.0 °F 5.1 °F 1.4 °F 57% 30.08 in 10.0 mi North 5.8 mph - N/A   Scattered Clouds
8:55 PM 12.2 °F 4.3 °F -0.4 °F 57% 30.08 in 10.0 mi North 4.6 mph - N/A   Clear
9:15 PM 10.4 °F - -0.4 °F 62% 30.08 in 10.0 mi Calm Calm - N/A   Clear
9:35 PM 8.6 °F 2.0 °F -0.4 °F 67% 30.08 in 10.0 mi NNW 3.5 mph - N/A   Clear
9:55 PM 6.8 °F - -2.2 °F 67% 30.08 in 10.0 mi Calm Calm - N/A   Clear
10:15 PM 5.0 °F - -2.2 °F 72% 30.08 in 10.0 mi Calm Calm - N/A   Clear
10:35 PM 5.0 °F - -2.2 °F 72% 30.09 in 10.0 mi Calm Calm - N/A   Clear
10:55 PM 6.8 °F - 1.4 °F 79% 30.09 in 10.0 mi Calm Calm - N/A   Clear
11:15 PM 3.2 °F - -7.6 °F 61% 30.09 in 10.0 mi Calm Calm - N/A   Clear
11:35 PM 1.4 °F -6.2 °F -5.8 °F 72% 30.09 in 10.0 mi NW 3.5 mph - N/A   Mostly Cloudy
11:55 PM 3.2 °F - -2.2 °F 78% 30.09 in 10.0 mi Calm Calm - N/A   Overcast